Weather History for K9L2 - October, 2013

Change the Weather History Date:

Thursday, October 24, 2013

  Actual Average (KEDW) Record (KEDW)
Temperature  
Mean Temperature 62 °F -  
Max Temperature 82 °F 72 °F 87 °F (2014)
Min Temperature 41 °F 41 °F 36 °F (2008)
Degree Days  
Heating Degree Days 4    
Growing Degree Days 12 (Base 50)    
Moisture  
Dew Point 17 °F    
Average Humidity 20    
Maximum Humidity 33    
Minimum Humidity 8    
Precipitation  
Precipitation 0.00 in - - ()
Sea Level Pressure  
Sea Level Pressure 29.96 in    
Wind  
Wind Speed 2 mph (SSW)    
Max Wind Speed 10 mph    
Max Gust Speed -    
Visibility 10 miles    
Events      
Averages and records for this station are not official NWS values.
T = Trace of Precipitation, MM = Missing Value Source: NWS Daily Summary

Daily Weather History Graph

Daily Weather History Graph

Search for Another Location

Airport or City:

Trip Planner

Search our weather history database for the weather conditions in past years. The results will help you decide how hot, cold, wet, or windy it might be!

Date:

Astronomy

Oct. 24, 2013 Rise Set
Actual Time 7:05 AM PDT 6:05 PM PDT
Civil Twilight 6:39 AM PDT 6:31 PM PDT
Nautical Twilight 6:09 AM PDT 7:00 PM PDT
Astronomical Twilight 5:40 AM PDT 7:30 PM PDT
Moon 10:38 PM PDT (10/24) 12:04 PM PDT (10/24)
Length of Visible Light 11h 51m
Length of Day
10h 59m
Waning Gibbous, 70% of the Moon is Illuminated
Oct 24
Waning Gibbous
Oct 26
Last Quarter
Nov 3
New
Nov 9
First Quarter
Nov 17
Full

Hourly Weather History & Observations

Time (PDT) Temp. Windchill Dew Point Humidity Pressure Visibility Wind Dir Wind Speed Gust Speed Precip Events Conditions
12:55 AM 46.9 °F - 10.0 °F 22% 29.92 in 10.0 mi Calm Calm - N/A   Clear
1:55 AM 46.0 °F - 10.0 °F 23% 29.92 in 10.0 mi Calm Calm - N/A   Clear
2:55 AM 45.0 °F - 10.0 °F 24% 29.92 in 10.0 mi Calm Calm - N/A   Clear
3:55 AM 43.0 °F 41.3 °F 10.9 °F 27% 29.92 in 10.0 mi North 3.5 mph - N/A   Unknown
4:55 AM 42.1 °F - 12.0 °F 29% 29.93 in 10.0 mi Calm Calm - N/A   Clear
5:55 AM 41.0 °F 39.0 °F 12.0 °F 31% 29.94 in 10.0 mi NE 3.5 mph - N/A   Clear
7:55 AM 43.0 °F - 12.0 °F 28% 29.99 in 10.0 mi Calm Calm - N/A   Clear
8:55 AM 52.0 °F - 19.0 °F 27% 29.99 in 10.0 mi Calm Calm - N/A   Clear
9:55 AM 59.0 °F - 19.9 °F 22% 29.99 in 10.0 mi Calm Calm - N/A   Clear
10:55 AM 64.9 °F - 21.0 °F 19% 29.99 in 10.0 mi South 5.8 mph - N/A   Clear
11:55 AM 72.0 °F - 21.9 °F 15% 29.98 in 10.0 mi South 4.6 mph - N/A   Clear
12:55 PM 78.1 °F - 19.0 °F 11% 29.95 in 10.0 mi Calm Calm - N/A   Clear
1:55 PM 80.1 °F - 16.0 °F 9% 29.93 in 10.0 mi Calm Calm - N/A   Clear
2:55 PM 81.0 °F - 15.1 °F 8% 29.92 in 10.0 mi SSE 3.5 mph - N/A   Clear
3:55 PM 82.0 °F - 15.1 °F 8% 29.91 in 10.0 mi SE 4.6 mph - N/A   Clear
4:55 PM 81.0 °F - 15.1 °F 8% 29.92 in 10.0 mi Calm Calm - N/A   Clear
5:55 PM 75.9 °F - 14.0 °F 10% 29.94 in 10.0 mi South 4.6 mph - N/A   Clear
6:55 PM 70.0 °F - 26.1 °F 19% 29.98 in 10.0 mi West 10.4 mph - N/A   Clear
7:55 PM 66.0 °F - 25.0 °F 21% 29.99 in 10.0 mi WNW 6.9 mph - N/A   Clear
8:55 PM 66.0 °F - 25.0 °F 21% 30.00 in 10.0 mi SW 4.6 mph - N/A   Clear
9:55 PM 57.9 °F - 21.9 °F 25% 30.01 in 10.0 mi SSW 6.9 mph - N/A   Clear
10:55 PM 55.9 °F - 24.1 °F 29% 30.02 in 10.0 mi SSW 4.6 mph - N/A   Clear
11:55 PM 51.1 °F - 23.0 °F 33% 30.02 in 10.0 mi Calm Calm - N/A   Clear